WZZ2293 LHBP-LUKK

Flight info

Callsign WZZ2293
Flight time N/A
Altitude 35000
Route VETIK DCT BADOR DCT BUSES
Aircraft A21N/M-SDE2E3FGHIRWXY/LB1

Departure

Time N/A
Airport Budapest Liszt Ferenc International Airport (LHBP)

Arrival

Time 2026-05-09 21:51
Airport Chişinău International Airport (LUKK)
Time Latitude Longitude Altitude Speed Heading
2026-05-09 20:49 47.59828 19.83651 22471 ft 418 kts 136°
2026-05-09 20:50 47.57853 19.86854 22805 ft 420 kts 136°
2026-05-09 20:50 47.55871 19.90065 23134 ft 421 kts 136°
2026-05-09 20:50 47.53883 19.93281 23457 ft 423 kts 136°
2026-05-09 20:50 47.51884 19.96510 23785 ft 425 kts 136°
2026-05-09 20:51 47.49871 19.99754 24120 ft 427 kts 136°
2026-05-09 20:51 47.47856 20.03003 24427 ft 429 kts 136°
2026-05-09 20:51 47.45820 20.06285 24733 ft 430 kts 136°
2026-05-09 20:51 47.43789 20.09553 25036 ft 432 kts 136°
2026-05-09 20:52 47.41748 20.12833 25332 ft 434 kts 136°
2026-05-09 20:52 47.39698 20.16116 25616 ft 435 kts 136°
2026-05-09 20:52 47.37708 20.19497 25864 ft 441 kts 129°
2026-05-09 20:52 47.36337 20.23565 26076 ft 451 kts 110°
2026-05-09 20:53 47.35893 20.28171 26332 ft 458 kts 91°
2026-05-09 20:53 47.36320 20.32844 26641 ft 461 kts 81°
2026-05-09 20:53 47.36930 20.37485 26892 ft 463 kts 80°
2026-05-09 20:53 47.37553 20.42154 27102 ft 465 kts 81°
2026-05-09 20:54 47.38168 20.46856 27337 ft 467 kts 81°
2026-05-09 20:54 47.38771 20.51567 27580 ft 469 kts 81°
2026-05-09 20:54 47.39369 20.56312 27828 ft 470 kts 81°
2026-05-09 20:54 47.39959 20.61051 28072 ft 471 kts 81°
2026-05-09 20:55 47.40548 20.65843 28294 ft 473 kts 82°
2026-05-09 20:55 47.41138 20.70667 28563 ft 473 kts 82°
2026-05-09 20:55 47.41722 20.75462 28926 ft 471 kts 82°
2026-05-09 20:55 47.42299 20.80225 29278 ft 470 kts 82°
2026-05-09 20:56 47.42875 20.84984 29606 ft 469 kts 82°
2026-05-09 20:56 47.44015 20.94468 30302 ft 466 kts 83°
2026-05-09 20:56 47.44579 20.99178 30640 ft 465 kts 82°
2026-05-09 20:57 47.45141 21.03883 30949 ft 464 kts 83°
2026-05-09 20:57 47.45703 21.08618 31221 ft 465 kts 83°
2026-05-09 20:57 47.46260 21.13344 31478 ft 465 kts 83°
2026-05-09 20:57 47.46819 21.18090 31720 ft 466 kts 83°
2026-05-09 20:58 47.47371 21.22797 32003 ft 466 kts 83°
2026-05-09 20:58 47.47923 21.27515 32288 ft 465 kts 83°
2026-05-09 20:58 47.48473 21.32232 32586 ft 464 kts 83°
2026-05-09 20:58 47.49021 21.36945 32876 ft 464 kts 83°
2026-05-09 20:59 47.49568 21.41662 33151 ft 464 kts 83°
2026-05-09 20:59 47.50116 21.46419 33399 ft 464 kts 83°
2026-05-09 20:59 47.50655 21.51108 33632 ft 465 kts 83°
2026-05-09 21:00 47.51735 21.60563 34057 ft 466 kts 83°
2026-05-09 21:00 47.52272 21.65294 34255 ft 467 kts 84°
2026-05-09 21:00 47.52807 21.70032 34458 ft 467 kts 84°
2026-05-09 21:00 47.53346 21.74809 34650 ft 468 kts 84°
2026-05-09 21:01 47.53880 21.79564 34811 ft 469 kts 84°
2026-05-09 21:01 47.54411 21.84316 34943 ft 469 kts 84°
2026-05-09 21:02 47.56002 21.98638 35032 ft 471 kts 84°
2026-05-09 21:02 47.56733 22.08248 35034 ft 469 kts 90°
2026-05-09 21:03 47.56681 22.17873 35036 ft 466 kts 97°
2026-05-09 21:03 47.55976 22.27387 35040 ft 464 kts 100°
2026-05-09 21:04 47.55167 22.36882 35041 ft 464 kts 100°
2026-05-09 21:04 47.54362 22.46388 35037 ft 465 kts 100°
2026-05-09 21:05 47.53557 22.55872 35038 ft 465 kts 100°
2026-05-09 21:05 47.52748 22.65355 35037 ft 465 kts 101°
2026-05-09 21:06 47.51930 22.74898 35036 ft 465 kts 101°
2026-05-09 21:06 47.51106 22.84397 35035 ft 466 kts 101°
2026-05-09 21:07 47.50272 22.93894 35035 ft 466 kts 101°
2026-05-09 21:07 47.49428 23.03401 35038 ft 466 kts 101°
2026-05-09 21:08 47.48579 23.12881 35038 ft 466 kts 101°
2026-05-09 21:08 47.47723 23.22358 35038 ft 466 kts 101°
2026-05-09 21:09 47.46858 23.31846 35042 ft 466 kts 101°
2026-05-09 21:09 47.45984 23.41328 35043 ft 467 kts 100°
2026-05-09 21:10 47.45103 23.50808 35041 ft 466 kts 100°
2026-05-09 21:10 47.44215 23.60290 35043 ft 467 kts 101°
2026-05-09 21:11 47.43314 23.69829 35043 ft 467 kts 101°
2026-05-09 21:12 47.41041 23.93521 35043 ft 467 kts 101°
2026-05-09 21:12 47.40117 24.03005 35047 ft 467 kts 101°
2026-05-09 21:13 47.39187 24.12448 35044 ft 466 kts 101°
2026-05-09 21:13 47.38248 24.21898 35053 ft 466 kts 101°
2026-05-09 21:14 47.37301 24.31340 35060 ft 467 kts 101°
2026-05-09 21:14 47.36346 24.40784 35057 ft 467 kts 101°
2026-05-09 21:15 47.35384 24.50235 35055 ft 467 kts 100°
2026-05-09 21:15 47.34412 24.59682 35065 ft 467 kts 101°
2026-05-09 21:16 47.33427 24.69200 35064 ft 467 kts 101°
2026-05-09 21:16 47.32444 24.78650 35065 ft 467 kts 101°
2026-05-09 21:17 47.31453 24.88073 35067 ft 466 kts 101°
2026-05-09 21:17 47.30455 24.97478 35071 ft 467 kts 101°
2026-05-09 21:18 47.29446 25.06902 35064 ft 467 kts 101°
2026-05-09 21:18 47.28430 25.16316 35073 ft 467 kts 101°
2026-05-09 21:19 47.26375 25.35143 35074 ft 467 kts 101°
2026-05-09 21:20 47.25337 25.44529 35076 ft 465 kts 101°
2026-05-09 21:20 47.24294 25.53898 35082 ft 464 kts 101°
2026-05-09 21:21 47.23243 25.63257 35068 ft 464 kts 101°
2026-05-09 21:21 47.22184 25.72657 35075 ft 465 kts 102°
2026-05-09 21:22 47.21121 25.82012 35080 ft 465 kts 102°
2026-05-09 21:22 47.20048 25.91354 35074 ft 464 kts 102°
2026-05-09 21:23 47.18971 26.00668 35075 ft 463 kts 102°
2026-05-09 21:23 47.17884 26.10000 35077 ft 464 kts 102°
2026-05-09 21:24 47.16784 26.19348 35077 ft 462 kts 101°
2026-05-09 21:24 47.15687 26.28628 35077 ft 462 kts 101°
2026-05-09 21:25 47.14582 26.37916 35080 ft 462 kts 102°
2026-05-09 21:25 47.14026 26.42555 34903 ft 462 kts 102°
2026-05-09 21:25 47.13468 26.47197 34667 ft 460 kts 101°
2026-05-09 21:26 47.12914 26.51798 34407 ft 457 kts 101°
2026-05-09 21:26 47.12361 26.56366 34133 ft 455 kts 101°
2026-05-09 21:26 47.11808 26.60910 33856 ft 453 kts 101°
2026-05-09 21:26 47.11255 26.65457 33584 ft 453 kts 102°
2026-05-09 21:27 47.10698 26.70024 33303 ft 453 kts 102°
2026-05-09 21:27 47.10138 26.74604 33027 ft 454 kts 102°
2026-05-09 21:27 47.09577 26.79162 32628 ft 456 kts 102°
2026-05-09 21:27 47.09014 26.83729 32124 ft 456 kts 102°
2026-05-09 21:28 47.08448 26.88297 31513 ft 457 kts 102°
2026-05-09 21:28 47.07878 26.92872 30844 ft 457 kts 102°
2026-05-09 21:28 47.07308 26.97438 30186 ft 457 kts 102°
2026-05-09 21:28 47.06737 27.01997 29518 ft 457 kts 102°
2026-05-09 21:29 47.06162 27.06578 28792 ft 458 kts 102°
2026-05-09 21:29 47.05586 27.11152 28083 ft 458 kts 102°
2026-05-09 21:29 47.05007 27.15725 27619 ft 455 kts 102°
2026-05-09 21:29 47.04458 27.20059 27164 ft 452 kts 102°
2026-05-09 21:30 47.03886 27.24554 26691 ft 448 kts 102°
2026-05-09 21:30 47.03314 27.29029 26208 ft 444 kts 102°
2026-05-09 21:30 47.02746 27.33466 25749 ft 440 kts 102°
2026-05-09 21:30 47.02184 27.37839 25279 ft 436 kts 102°
2026-05-09 21:31 47.01624 27.42188 24797 ft 433 kts 102°
2026-05-09 21:31 47.01068 27.46485 24312 ft 429 kts 102°
2026-05-09 21:31 47.00513 27.50755 23831 ft 426 kts 102°
2026-05-09 21:31 46.99963 27.54987 23357 ft 423 kts 102°
2026-05-09 21:32 46.99414 27.59185 22908 ft 419 kts 102°
2026-05-09 21:32 46.98870 27.63338 22470 ft 415 kts 102°
2026-05-09 21:32 46.98322 27.67511 22031 ft 411 kts 103°
2026-05-09 21:32 46.97785 27.71608 21603 ft 407 kts 103°
2026-05-09 21:33 46.97250 27.75669 21173 ft 404 kts 103°
2026-05-09 21:33 46.96721 27.79676 20728 ft 401 kts 102°
2026-05-09 21:33 46.96194 27.83648 20280 ft 398 kts 102°
2026-05-09 21:33 46.95669 27.87589 19832 ft 395 kts 102°
2026-05-09 21:34 46.95146 27.91507 19390 ft 392 kts 102°
2026-05-09 21:34 46.94625 27.95399 18949 ft 389 kts 102°
2026-05-09 21:34 46.94104 27.99269 18509 ft 386 kts 102°
2026-05-09 21:34 46.93589 28.03091 18063 ft 384 kts 102°
2026-05-09 21:35 46.93113 28.06938 17601 ft 382 kts 97°
2026-05-09 21:35 46.93165 28.10799 17146 ft 381 kts 82°
2026-05-09 21:35 46.93888 28.14499 16697 ft 379 kts 67°
2026-05-09 21:35 46.95034 28.17942 16281 ft 376 kts 63°
2026-05-09 21:36 46.96235 28.21314 15861 ft 373 kts 62°
2026-05-09 21:36 46.97431 28.24657 15441 ft 370 kts 63°
2026-05-09 21:36 46.98610 28.27983 15024 ft 367 kts 62°
2026-05-09 21:36 46.99773 28.31289 14609 ft 365 kts 63°
2026-05-09 21:37 47.00919 28.34573 14185 ft 362 kts 63°
2026-05-09 21:37 47.02058 28.37843 13764 ft 359 kts 63°
2026-05-09 21:37 47.03185 28.41093 13334 ft 357 kts 63°
2026-05-09 21:37 47.04303 28.44323 12901 ft 355 kts 63°
2026-05-09 21:38 47.05414 28.47539 12468 ft 353 kts 64°
2026-05-09 21:38 47.06516 28.50733 12045 ft 350 kts 64°
2026-05-09 21:38 47.07608 28.53899 11620 ft 348 kts 64°
2026-05-09 21:38 47.08696 28.57062 11193 ft 346 kts 64°
2026-05-09 21:39 47.09774 28.60199 10762 ft 344 kts 64°
2026-05-09 21:39 47.10849 28.63328 10380 ft 340 kts 64°
2026-05-09 21:39 47.11893 28.66370 10283 ft 325 kts 65°
2026-05-09 21:39 47.12887 28.69278 10187 ft 312 kts 65°
2026-05-09 21:40 47.13841 28.72076 10096 ft 299 kts 65°
2026-05-09 21:40 47.14751 28.74744 10011 ft 286 kts 65°
2026-05-09 21:40 47.15633 28.77330 9697 ft 282 kts 65°
2026-05-09 21:40 47.16505 28.79888 9362 ft 279 kts 65°
2026-05-09 21:41 47.17369 28.82426 9042 ft 276 kts 66°
2026-05-09 21:41 47.17878 28.85088 8692 ft 270 kts 91°
2026-05-09 21:41 47.17521 28.87729 8376 ft 263 kts 117°
2026-05-09 21:41 47.16467 28.89849 8092 ft 256 kts 135°
2026-05-09 21:42 47.15218 28.91684 7796 ft 253 kts 136°
2026-05-09 21:42 47.13979 28.93480 7499 ft 250 kts 136°
2026-05-09 21:42 47.12755 28.95268 7207 ft 246 kts 135°
2026-05-09 21:42 47.11554 28.97035 6918 ft 243 kts 135°
2026-05-09 21:43 47.10358 28.98805 6627 ft 245 kts 135°
2026-05-09 21:43 47.09159 29.00581 6335 ft 245 kts 135°
2026-05-09 21:43 47.07964 29.02355 6049 ft 244 kts 135°
2026-05-09 21:43 47.06774 29.04120 5756 ft 243 kts 135°
2026-05-09 21:44 47.05583 29.05886 5471 ft 241 kts 135°
2026-05-09 21:44 47.04403 29.07635 5194 ft 240 kts 135°
2026-05-09 21:44 47.03231 29.09372 4912 ft 239 kts 135°
2026-05-09 21:44 47.02068 29.11095 4707 ft 236 kts 135°
2026-05-09 21:45 47.00903 29.12821 4678 ft 238 kts 135°
2026-05-09 21:45 46.99738 29.14545 4629 ft 238 kts 134°
2026-05-09 21:45 46.98572 29.16268 4517 ft 238 kts 134°
2026-05-09 21:45 46.97414 29.17978 4332 ft 234 kts 134°
2026-05-09 21:46 46.96274 29.19661 4008 ft 233 kts 134°
2026-05-09 21:46 46.95112 29.21309 3616 ft 232 kts 142°
2026-05-09 21:46 46.93635 29.22094 3323 ft 229 kts 181°
2026-05-09 21:46 46.92190 29.21278 3095 ft 225 kts 224°
2026-05-09 21:47 46.91547 29.19304 3087 ft 214 kts 267°
2026-05-09 21:47 46.91772 29.17277 3103 ft 193 kts 285°
2026-05-09 21:47 46.92154 29.15516 2903 ft 174 kts 288°
2026-05-09 21:47 46.92531 29.13910 2654 ft 160 kts 288°
2026-05-09 21:48 46.92841 29.12353 2457 ft 158 kts 281°
2026-05-09 21:48 46.93006 29.10765 2262 ft 158 kts 274°
2026-05-09 21:48 46.93075 29.09167 2070 ft 157 kts 271°
2026-05-09 21:48 46.93096 29.07578 1870 ft 156 kts 269°
2026-05-09 21:49 46.93073 29.06000 1671 ft 155 kts 267°
2026-05-09 21:49 46.93033 29.04427 1472 ft 155 kts 266°
2026-05-09 21:49 46.92992 29.02859 1270 ft 154 kts 267°
2026-05-09 21:49 46.92955 29.01297 1069 ft 153 kts 267°
2026-05-09 21:50 46.92920 28.99730 866 ft 152 kts 267°
2026-05-09 21:50 46.92887 28.98190 664 ft 151 kts 267°
2026-05-09 21:50 46.92824 28.95138 301 ft 149 kts 268°
2026-05-09 21:51 46.92810 28.93823 311 ft 91 kts 268°
2026-05-09 21:51 46.92779 28.93169 327 ft 43 kts 279°
2026-05-09 21:51 46.92778 28.92882 334 ft 19 kts 267°
2026-05-09 21:51 46.92771 28.92681 340 ft 21 kts 267°
2026-05-09 21:52 46.92766 28.92458 346 ft 22 kts 274°
2026-05-09 21:52 46.92761 28.92221 354 ft 27 kts 268°
2026-05-09 21:52 46.92809 28.92022 362 ft 20 kts
2026-05-09 21:52 46.92906 28.92031 360 ft 8 kts 335°
2026-05-09 21:53 46.92950 28.91997 360 ft 7 kts 351°
2026-05-09 21:53 46.93014 28.91990 360 ft 10 kts 355°
2026-05-09 21:53 46.93096 28.91988 359 ft 12 kts
2026-05-09 21:54 46.93288 28.92053 357 ft 14 kts 351°
2026-05-09 21:54 46.93389 28.92037 357 ft 7 kts 356°